User: anonymous   Login
Location: Unspecified
(0.0000°N, 0.0000°E)
Time: 19:26:37
(UTC+00:00)
Language:

STARLINK-31522 - Orbit

View from above orbital plane
View from above orbital plane
View from above satellite
View from above satellite

Ground track
Ground track

The orbit is defined by the following mean orbital elements,

1 59204U          26145.41958833 +.00000000 +00000-0 +64893-4 0 00006
2 59204  53.1589 159.1927 0001158  93.8529 266.2604 15.30186905    02
Epoch (UTC): 25 May 2026 10:04:12
Eccentricity: 0.0001158
inclination: 53.1589°
perigee height: 474 km
apogee height: 476 km
right ascension of ascending node: 159.1927°
argument of perigee: 93.8529°
revolutions per day: 15.30186905
mean anomaly at epoch: 266.2604°

The dashed part of the orbit path shows where the satellite is in the earth's shadow,  

DLR